Fairbanks Eiels, AK

12:12 AM AKDT on August 24, 2019 (GMT -0800)
Eielson Air Force Base

Weather History for PAEI - July, 2019

Change the Weather History Date:

Friday, July 19, 2019

  Actual Average Record
Temperature  
Mean Temperature 63 °F -  
Max Temperature 67 °F 69 °F 84 °F (2001)
Min Temperature 58 °F 50 °F 42 °F (1959)
Degree Days  
Heating Degree Days 2    
Growing Degree Days 13 (Base 50)    
Moisture  
Dew Point 52 °F    
Average Humidity 69    
Maximum Humidity 82    
Minimum Humidity 54    
Precipitation  
Precipitation 0.00 in - - ()
Sea Level Pressure  
Sea Level Pressure 29.95 in    
Wind  
Wind Speed 4 mph (WSW)    
Max Wind Speed 8 mph    
Max Gust Speed -    
Visibility 10 miles    
Events      
Averages and records for this station are not official NWS values.
T = Trace of Precipitation, MM = Missing Value Source: NWS Daily Summary

Daily Weather History Graph

Daily Weather History Graph

Search for Another Location

Airport or City:

Astronomy

Jul. 19, 2019 Rise Set
Actual Time 4:05 AM AKDT 11:40 PM AKDT
Civil Twilight 2:27 AM AKDT 1:22 AM AKDT
Nautical Twilight Sun does not set Sun does not set
Astronomical Twilight Sun does not set Sun does not set
Moon 12:26 AM AKDT (7/19) 7:35 AM AKDT (7/19)
Length of Visible Light 22h 55m
Length of Day
19h 35m
Waning Gibbous, 92% of the Moon is Illuminated
Jul 19
Waning Gibbous
Jul 24
Last Quarter
Jul 31
New
Aug 7
First Quarter
Aug 15
Full

Hourly Weather History & Observations

Time (AKDT) Temp. Dew Point Humidity Pressure Visibility Wind Dir Wind Speed Gust Speed Precip Events Conditions
12:26 AM 62.6 °F 57.2 °F 82% 29.86 in 10.0 mi WSW 5.8 mph - N/A   Overcast
12:56 AM 62.1 °F 56.1 °F 81% 29.87 in 10.0 mi West 4.6 mph - N/A   Partly Cloudy
1:26 AM 62.6 °F 55.4 °F 77% 29.88 in 10.0 mi West 3.5 mph - N/A   Mostly Cloudy
1:56 AM 61.9 °F 54.5 °F 77% 29.89 in 10.0 mi West 4.6 mph - N/A   Overcast
2:56 AM 61.2 °F 52.9 °F 74% 29.91 in 10.0 mi WSW 3.5 mph - N/A   Overcast
3:56 AM 59.9 °F 51.6 °F 74% 29.92 in 10.0 mi SSW 3.5 mph - N/A   Overcast
4:56 AM 59.2 °F 51.3 °F 75% 29.93 in 10.0 mi Calm Calm - N/A   Overcast
5:56 AM 59.0 °F 51.1 °F 75% 29.95 in 10.0 mi Calm Calm - N/A   Overcast
6:26 AM 59.0 °F 51.8 °F 77% 29.95 in 10.0 mi Calm Calm - N/A   Overcast
6:56 AM 59.5 °F 50.9 °F 73% 29.96 in 10.0 mi Calm Calm - N/A   Overcast
7:56 AM 60.3 °F 51.6 °F 73% 29.96 in 10.0 mi Calm Calm - N/A   Mostly Cloudy
8:56 AM 60.6 °F 52.0 °F 73% 29.97 in 10.0 mi Calm Calm - N/A   Mostly Cloudy
9:56 AM 62.1 °F 52.2 °F 70% 29.97 in 10.0 mi SSW 4.6 mph - N/A   Mostly Cloudy
10:56 AM 62.8 °F 51.3 °F 66% 29.97 in 10.0 mi SSW 3.5 mph - N/A   Overcast
11:56 AM 64.0 °F 51.3 °F 63% 29.98 in 10.0 mi West 8.1 mph - N/A   Overcast
12:56 PM 65.3 °F 50.5 °F 59% 29.98 in 10.0 mi WSW 4.6 mph - N/A   Mostly Cloudy
1:56 PM 67.3 °F 50.0 °F 54% 29.98 in 10.0 mi SSW 5.8 mph - N/A   Mostly Cloudy
2:57 PM 66.9 °F 50.2 °F 55% 29.97 in 10.0 mi WSW 5.8 mph - N/A   Mostly Cloudy
3:56 PM 66.7 °F 51.1 °F 57% 29.97 in 10.0 mi West 8.1 mph - N/A   Overcast
4:56 PM 67.3 °F 51.4 °F 57% 29.97 in 10.0 mi SW 6.9 mph - N/A   Overcast
5:56 PM 66.9 °F 51.6 °F 58% 29.97 in 10.0 mi WSW 3.5 mph - N/A   Overcast
6:56 PM 66.7 °F 52.3 °F 60% 29.97 in 10.0 mi SW 4.6 mph - N/A   Overcast
7:56 PM 66.2 °F 51.8 °F 60% 29.97 in 10.0 mi South 3.5 mph - N/A   Overcast
8:56 PM 66.4 °F 51.6 °F 59% 29.98 in 10.0 mi WSW 3.5 mph - N/A   Mostly Cloudy
9:56 PM 63.5 °F 53.1 °F 69% 29.99 in 10.0 mi Calm Calm - N/A   Mostly Cloudy
10:56 PM 61.3 °F 54.1 °F 77% 30.00 in 10.0 mi Calm Calm - N/A   Overcast
11:56 PM 58.5 °F 52.3 °F 80% 30.00 in 10.0 mi Calm Calm - N/A   Mostly Cloudy